RH
31 50 58 50 45 48 46 52 49 52 62 69 48 46 40 38 38 45 51 60 51 46 35 50 60 59 57 66 66 65 59 53 54 59 67 78 68 73 70 59 56 47 50 52
30 38 41 38 42 55 49 58 64 50 77 60 54 48 34 39 40 40 50 59 55 45 40 49 63 61 58 62 61 58 65 52 54 60 54 66 68 66 69 46 48 56 63 67
33 27 25 44 51 53 53 61 61 63 60 50 56 53 35 35 37 40 47 45 56 50 46 46 61 63 61 60 60 58 61 65 60 69 65 50 52 45 46 45 45 53 69 79
27 23 36 42 52 51 77 49 52 68 78 86 62 60 41 35 38 38 46 50 56 46 50 49 60 64 64 62 61 63 65 65 69 68 75 72 51 46 43 53 64 65 79 78
19 20 26 36 43 43 54 56 55 72 88 89 61 64 44 35 36 42 46 45 48 38 44 47 55 57 64 64 63 65 74 69 68 74 73 71 65 61 64 65 69 74 72 74
16 12 15 21 33 44 52 63 74 81 90 94 66 74 50 42 34 40 44 43 40 43 47 47 52 60 62 66 69 72 77 75 74 69 68 73 66 70 74 73 70 68 75 79
14 13 12 27 60 57 56 63 98 84 91 87 72 75 55 38 33 34 38 42 40 38 46 46 48 61 67 66 69 73 75 74 83 73 72 64 74 80 78 77 69 74 80 81
20 20 15 20 47 63 54 67 89 77 88 72 66 70 46 37 31 29 31 35 35 35 42 44 48 60 63 63 65 62 66 69 75 72 75 77 73 72 73 80 75 82 80 74
18 18 12 26 34 48 62 66 68 84 70 80 76 63 42 36 35 28 36 34 32 35 39 40 47 52 56 56 52 46 48 54 61 62 64 64 64 71 83 76 82 70 76 64
13 16 13 26 30 43 55 55 67 64 80 77 76 70 55 38 32 28 34 35 34 35 37 38 44 49 51 50 54 52 47 47 48 50 50 54 64 79 77 77 74 73 78 77
11 14 10 17 28 40 53 55 70 78 79 82 85 60 46 39 35 31 30 31 30 34 35 37 39 47 45 49 54 55 54 49 50 51 56 69 74 80 76 64 73 68 74 73
11 16 16 16 27 34 41 49 57 71 75 83 80 61 33 32 32 26 29 30 30 29 35 34 39 42 48 46 50 53 56 59 58 55 66 78 82 83 81 64 63 71 86 81
10 14 13 15 32 27 39 44 50 70 75 71 79 59 31 28 24 24 26 29 30 35 33 35 40 40 45 45 46 51 53 59 68 70 76 82 80 80 77 75 80 86 79 48
12 14 13 13 22 30 40 42 48 63 82 73 68 48 36 29 24 24 24 27 32 33 34 36 39 40 42 43 44 50 57 60 66 70 73 77 76 76 79 83 82 63 42 46
10 10 12 12 12 24 36 36 41 48 57 57 46 48 38 31 25 24 24 28 30 33 35 36 36 38 41 44 47 53 56 62 65 70 74 78 80 82 80 74 46 42 43 40
15 14 11 12 15 26 38 35 35 36 40 48 44 36 28 25 21 22 23 24 29 31 34 33 32 34 39 44 49 55 58 65 70 73 75 79 85 79 60 36 38 38 40 44
15 17 17 13 29 30 45 43 39 35 36 37 45 34 27 24 26 23 23 26 29 30 29 29 31 35 40 46 51 58 69 75 79 76 81 85 76 47 34 38 37 39 41 45
15 18 25 17 35 42 29 25 28 31 31 31 31 28 25 22 21 21 22 28 32 32 31 32 35 40 43 50 57 67 77 79 85 87 85 72 38 33 34 38 40 40 41 43
16 22 23 20 28 20 24 24 25 32 36 30 29 25 26 23 22 24 24 21 25 27 28 31 29 35 45 53 62 70 78 81 79 68 54 34 32 31 36 40 42 44 47 41
20 21 25 29 21 23 18 19 20 21 33 25 26 25 28 23 30 30 27 31 30 26 28 32 31 38 49 61 68 72 73 72 62 36 28 30 31 33 38 39 44 50 38 19
24 30 30 37 32 22 16 16 20 33 32 25 25 23 27 31 22 22 24 26 22 24 28 30 31 43 53 62 73 76 68 61 33 27 27 30 34 37 40 42 53 50 21 13
29 32 40 40 33 27 12 14 25 25 20 20 24 24 26 21 19 23 22 21 26 30 35 35 40 55 61 62 67 68 58 32 26 26 26 30 36 40 42 45 48 28 21 18
46 29 37 33 36 25 17 14 10 10 15 18 19 22 22 22 18 22 26 21 22 21 31 33 39 58 63 61 60 54 24 22 26 29 28 32 38 41 41 43 34 30 40 40
58 32 32 28 25 22 15 12 14 15 16 14 15 17 19 19 17 22 28 26 26 32 30 34 52 59 56 61 60 48 18 22 26 30 32 35 39 42 45 41 33 38 45 48
67 62 46 32 24 19 15 15 13 15 16 14 15 15 19 19 19 22 38 34 29 34 36 36 52 52 48 55 58 31 18 20 26 31 33 36 41 43 40 40 46 47 51 50
53 60 55 54 40 25 16 13 12 14 16 19 20 19 21 20 19 22 45 31 38 47 45 63 61 54 50 52 48 21 19 19 22 30 32 36 44 43 41 48 52 56 55 50
Wind_Speed
21 5 7 14 10 4 13 1 1 12 15 15 8 2 14 21 20 24 24 28 29 25 18 23 18 20 17 18 18 12 14 17 17 18 18 19 22 23 21 21 19 19 15 14
1 7 12 13 6 6 7 2 3 6 15 7 8 14 9 19 24 28 29 29 32 26 12 22 23 28 23 23 20 16 15 15 13 9 10 12 15 18 21 24 16 11 10 9
8 13 13 12 7 9 3 6 1 3 9 6 10 10 10 14 25 24 29 37 34 32 25 23 30 31 29 27 25 21 15 15 13 11 11 13 18 21 21 18 11 8 7 8
7 5 21 15 11 14 6 7 10 4 6 3 9 4 6 8 15 17 27 29 35 29 28 22 34 32 32 32 26 23 16 16 13 13 12 12 14 16 14 12 9 7 7 5
13 6 11 18 17 23 6 15 11 11 5 5 3 3 10 4 11 13 23 32 32 30 29 25 35 32 28 34 30 26 20 17 16 15 12 10 10 8 5 7 9 8 5 6
10 8 5 8 14 7 20 17 11 6 2 3 4 3 4 8 15 14 24 31 36 32 32 29 32 30 28 27 29 25 24 17 15 16 14 14 11 6 5 4 5 3 4 6
7 9 10 27 24 16 22 9 3 2 1 5 7 4 9 2 8 20 22 31 35 32 35 31 28 34 31 30 27 26 21 18 17 17 16 16 12 10 7 6 3 3 7 7
5 9 7 11 22 18 17 8 6 7 5 3 5 6 6 3 5 25 41 39 36 34 36 31 34 38 37 31 26 21 19 17 18 19 19 14 11 10 8 4 3 6 9 9
4 8 4 7 12 16 9 4 6 7 1 2 3 5 9 11 8 15 23 27 32 36 34 34 38 39 35 26 21 18 18 18 18 18 18 15 11 10 6 7 6 6 9 10
8 4 5 11 9 5 10 16 5 2 4 4 3 4 7 2 8 17 20 29 32 35 36 38 39 39 34 26 22 18 17 17 17 16 15 13 10 9 11 12 8 6 5 7
7 6 13 7 6 8 2 5 7 6 3 5 2 5 7 11 5 20 28 32 37 36 39 42 38 38 31 26 24 21 18 17 17 15 13 13 11 14 14 12 13 7 8 10
10 6 8 9 7 11 7 7 5 4 2 1 2 6 4 10 11 27 30 35 40 43 40 40 39 35 33 27 25 23 20 17 11 15 16 12 12 15 18 10 5 8 8 6
6 4 8 5 6 1 6 5 5 5 4 4 2 6 6 11 13 27 33 36 39 38 41 40 40 37 36 29 24 24 20 15 16 16 17 15 15 16 15 12 9 6 4 2
10 6 9 10 9 6 6 10 12 6 4 5 10 15 17 7 14 16 34 40 40 42 44 41 40 41 37 30 24 24 25 23 20 20 19 20 18 15 11 7 6 4 2 4
4 7 7 6 11 7 19 16 10 4 4 8 6 13 19 8 8 24 37 40 38 41 42 43 41 39 38 34 30 30 28 26 25 22 23 21 14 9 7 7 6 6 6 9
7 4 2 3 7 15 17 18 14 7 9 13 6 13 9 17 8 28 34 36 37 39 42 45 40 38 37 36 34 32 30 30 27 24 20 14 10 8 9 8 9 10 11 11
3 3 5 4 3 10 13 17 14 7 8 13 11 12 5 5 13 30 36 39 40 44 46 43 39 39 39 39 37 34 32 30 25 21 18 14 12 12 12 13 13 12 12 12
4 2 2 4 3 5 8 22 25 20 18 16 19 10 5 9 30 38 45 42 46 49 47 44 43 43 43 41 38 35 31 25 20 18 16 15 16 16 17 16 15 15 14 12
6 4 3 3 5 5 2 11 13 12 10 19 22 19 9 7 31 25 48 55 57 52 50 45 36 38 40 39 37 33 27 22 18 18 18 18 18 19 18 16 14 13 11 10
7 5 5 2 5 8 8 9 16 9 8 16 16 13 10 13 14 14 36 48 53 51 47 45 39 40 39 37 33 30 25 21 20 21 20 19 20 18 17 15 13 12 9 10
2 2 6 3 2 7 8 9 19 8 8 21 29 25 13 7 14 38 46 51 50 49 46 43 40 41 38 35 31 27 23 23 22 22 22 23 21 19 16 14 12 10 10 11
2 2 4 3 3 4 6 6 12 9 11 31 29 29 18 27 27 42 53 52 51 49 47 45 43 40 36 32 30 26 24 24 24 24 24 24 22 20 17 14 13 11 13 14
5 7 4 7 6 6 15 11 17 21 18 14 34 31 24 29 33 47 53 54 52 48 49 46 44 40 35 31 28 26 27 27 27 27 26 25 23 20 18 16 15 17 15 14
8 6 4 4 7 9 20 5 8 20 21 13 17 27 28 31 37 51 55 57 54 53 52 50 47 40 36 33 29 25 28 28 28 29 28 26 24 23 20 17 17 17 17 15
6 14 6 5 8 22 35 23 23 15 4 22 34 28 28 20 34 50 49 56 57 56 55 54 49 43 38 37 33 31 31 30 31 30 29 28 26 24 23 22 20 16 13 9
9 6 3 4 18 18 33 14 10 7 6 4 31 21 12 25 28 45 47 60 57 57 56 51 47 42 39 39 37 36 34 33 33 34 32 31 29 27 26 25 23 18 14 10
Wind_Direction
147 149 187 193 186 169 213 302 15 82 19 3 304 251 188 182 173 154 167 156 167 173 169 189 178 182 182 183 178 169 153 146 159 165 172 180 187 189 182 171 179 194 198 202
26 211 209 181 149 116 144 115 16 119 112 268 300 267 211 179 191 178 167 172 180 187 195 189 185 182 190 194 186 187 191 181 163 152 132 165 172 179 188 170 181 192 208 232
197 239 175 149 159 133 159 177 220 88 327 256 243 267 235 188 194 190 181 192 190 191 195 189 190 192 189 201 198 195 207 199 186 172 154 155 155 159 173 185 198 228 253 261
226 192 151 148 180 151 168 252 123 65 34 308 0 279 254 193 197 171 177 184 193 196 200 196 195 195 197 203 206 204 200 200 196 201 199 198 181 180 177 215 250 254 240 257
244 163 186 176 180 180 145 129 123 96 73 15 325 255 226 150 194 176 175 189 194 203 199 199 197 202 201 201 208 210 210 205 207 215 212 214 220 222 235 247 248 253 283 311
248 300 213 222 161 125 113 111 59 69 107 242 247 111 249 193 200 168 187 190 192 201 201 198 201 203 209 207 204 208 207 207 209 212 219 224 217 227 213 237 243 261 308 317
331 287 282 100 99 126 133 125 78 25 240 227 199 167 249 228 199 174 187 188 191 197 192 197 206 204 213 208 204 206 209 207 210 214 215 208 214 234 246 259 286 305 317 299
195 292 207 119 144 162 180 172 154 193 215 216 131 230 236 177 253 192 191 192 193 191 191 199 201 201 206 204 203 205 208 208 209 212 215 219 217 224 229 248 290 292 289 294
173 255 22 63 121 144 204 219 164 100 341 39 249 296 290 246 217 208 189 178 184 189 193 198 199 201 199 199 196 199 200 201 203 202 207 210 209 220 233 234 242 253 265 246
221 280 132 146 116 81 196 159 80 49 147 241 262 256 241 266 182 176 173 181 185 193 197 200 200 200 200 200 194 195 190 195 195 199 203 209 217 224 231 237 241 208 228 254
174 142 259 140 178 182 2 349 59 104 132 155 282 255 204 222 223 169 182 184 186 192 196 197 200 199 203 202 199 198 194 197 202 202 205 207 204 216 230 249 239 235 253 257
204 164 241 211 176 130 137 160 180 117 179 3 132 282 249 203 188 181 177 179 185 196 199 200 197 201 201 202 202 204 202 199 207 199 201 202 209 220 230 252 257 260 250 252
188 219 234 15 3 343 129 197 120 123 74 150 131 261 345 200 162 180 167 179 181 191 193 198 197 200 202 199 201 203 203 198 196 199 211 217 219 226 234 242 252 245 230 233
197 161 171 214 195 164 110 119 128 109 141 214 207 264 281 265 171 157 172 175 179 183 191 194 196 197 198 198 197 198 197 199 201 209 219 218 213 209 220 235 228 217 190 141
57 202 161 197 205 126 129 151 182 164 156 199 273 215 254 253 198 162 166 168 170 180 182 189 191 192 195 194 193 196 200 202 209 210 201 196 198 194 197 191 179 152 138 123
350 299 315 150 167 142 134 173 171 162 182 253 308 249 229 207 217 166 164 163 167 174 181 187 187 191 191 191 194 196 202 205 200 198 191 199 191 189 185 177 154 143 131 123
276 37 5 254 166 119 129 173 166 152 201 211 236 240 187 154 177 181 164 164 164 173 183 182 187 192 191 194 196 194 190 183 183 192 194 191 186 181 171 156 144 139 134 134
266 44 170 221 95 148 228 175 168 178 194 211 227 238 219 190 177 177 169 166 165 173 174 175 178 184 191 193 191 187 180 179 185 191 195 179 171 167 158 149 149 141 137 139
175 126 285 173 170 248 107 156 164 157 209 203 223 237 166 239 159 181 170 176 172 174 177 180 183 190 190 188 187 185 181 186 191 190 176 169 167 161 154 152 148 141 143 141
132 134 155 79 164 189 229 184 190 149 198 207 234 227 156 161 165 185 174 170 174 177 180 182 188 192 191 189 190 190 189 191 189 180 172 167 164 163 159 162 152 144 141 143
37 82 184 178 227 283 227 158 143 137 226 205 207 230 185 167 199 178 175 175 179 182 184 188 194 193 194 193 194 195 196 193 183 175 170 166 164 165 168 159 150 145 142 138
226 152 208 117 163 248 243 116 163 206 208 190 213 223 195 199 206 182 177 178 181 184 186 192 195 194 194 195 195 196 195 188 181 176 172 168 169 171 167 163 158 154 149 141
253 190 204 176 211 222 320 346 258 209 193 171 204 212 203 198 198 184 177 183 185 189 191 197 200 193 191 194 195 192 189 187 183 178 175 174 175 174 172 172 169 159 156 151
336 328 238 30 302 294 308 325 350 190 174 204 210 210 206 203 197 187 182 186 188 191 194 199 198 192 191 193 192 197 191 188 186 182 180 179 179 177 177 177 175 171 165 162
255 320 288 254 267 288 284 267 284 290 178 214 212 202 177 186 204 187 185 185 191 194 199 202 196 193 195 191 190 192 194 192 188 186 186 185 184 184 180 177 178 180 177 179
214 249 335 277 290 266 265 251 220 281 305 267 197 220 216 216 203 189 187 189 191 194 199 199 194 195 195 192 189 191 194 195 192 190 190 189 187 186 186 183 182 183 189 195